Torna al catalogo

METEOR M2-4

AttivoMeteoSSO
NORAD 59051·PAYLOAD·🇷🇺 Russia

Lanciato Feb 29, 2024 da Vostochny Cosmodrome

Loading…

Prossimi Passaggi (prossime 24 ore)

TLE

AggiornatoSource: Space-Track

Epoca: Sep 14, 2026, 14:06 UTC

1 59051U 24039A   26257.58782083 -.00000003  00000-0  18510-4 0  9994
2 59051  98.7115 215.8015 0005919 272.9142  87.1359 14.22437376131979

Traccia METEOR M2-4 in tempo reale con AllMySat

Download on the App Store